OVERFALLS Weather Reports


Display with metric or nautical units.
time (UTC)temp
F
wind
direction
speed
MPH
gust
MPH
rain 1hr
in
rain 24hr
in
rain mn
in
humidity
%
barometer
mb
20260904143058 82 266 6.0 15.0 0.00 0.50 0.50 75 1013.6
20260904141559 82 202 4.0 12.0 0.00 0.50 0.50 76 1013.8
20260904140055 82 283 3.0 12.0 0.00 0.50 0.50 78 1013.5
20260904134555 80 298 5.0 14.0 0.00 0.50 0.50 80 1013.3
20260904133105 79 281 7.0 16.0 0.00 0.50 0.50 82 1013.6
20260904131556 78 249 6.0 14.0 0.00 0.50 0.50 86 1013.7
20260904130057 77 269 8.0 16.0 0.00 0.50 0.50 88 1013.4
20260904124602 76 265 10.0 16.0 0.00 0.50 0.50 92 1013.3
20260904123056 74 263 7.0 11.0 0.00 0.50 0.50 94 1013.3
20260904121553 74 277 6.0 14.0 0.00 0.50 0.50 95 1013.3
20260904120056 73 259 7.0 12.0 0.00 0.50 0.50 96 1013.3
20260904114557 74 273 9.0 15.0 0.00 0.50 0.50 96 1013.2
20260904113054 73 261 9.0 14.0 0.00 0.50 0.50 97 1013.3
20260904111553 72 269 6.0 11.0 0.00 0.50 0.50 96 1013.2
20260904110050 72 269 6.0 12.0 0.00 0.50 0.50 97 1013.1
20260904104555 72 258 5.0 11.0 0.00 0.50 0.50 96 1012.8
20260904103054 72 267 5.0 12.0 0.00 0.50 0.50 96 1012.6
20260904101554 72 220 5.0 10.0 0.00 0.50 0.50 96 1012.5
20260904100056 72 240 5.0 10.0 0.00 0.50 0.50 97 1012.7
20260904094556 72 258 4.0 8.0 0.00 0.50 0.50 96 1012.8
20260904093055 72 254 2.0 7.0 0.00 0.50 0.50 96 1012.9
20260904091557 72 221 3.0 8.0 0.00 0.50 0.50 96 1012.8
20260904090049 72 242 4.0 8.0 0.00 0.50 0.50 96 1012.8
20260904084602 72 251 3.0 8.0 0.00 0.51 0.50 96 1012.7
20260904083056 72 252 2.0 10.0 0.00 0.51 0.50 96 1012.9
20260904081551 72 257 4.0 9.0 0.00 0.51 0.50 96 1013.3
20260904080059 72 240 2.0 10.0 0.03 0.51 0.50 96 1013.4
20260904074605 72 227 2.0 8.0 0.07 0.51 0.50 96 1013.4
20260904073054 72 235 4.0 12.0 0.11 0.51 0.50 96 1013.6
20260904071622 72 205 4.0 9.0 0.15 0.50 0.49 95 1013.7
20260904070101 72 236 3.0 10.0 0.19 0.48 0.47 95 1013.9
20260904064606 72 217 4.0 10.0 0.42 0.43 0.42 95 1014.3
20260904063056 73 233 4.0 12.0 0.38 0.39 0.38 94 1014.6
20260904061551 73 214 9.0 26.0 0.33 0.34 0.33 94 1015.4
20260904060100 74 271 17.0 45.0 0.27 0.28 0.27 91 1014.7
20260904054556 79 248 16.0 34.0 0.00 0.00 0.00 90 1014.5
20260904053102 80 222 3.0 7.0 0.00 0.00 0.00 93 1013.1
20260904051552 79 204 2.0 7.0 0.00 0.00 0.00 93 1013.1
20260904050056 79 226 1.0 5.0 0.00 0.00 0.00 93 1013.2
20260904044601 79 226 1.0 4.0 0.00 0.00 0.00 92 1013.6
20260904043054 79 226 0.0 3.0 0.00 0.00 0.00 92 1013.5
20260904041602 79 226 0.0 3.0 0.00 0.00 0.00 92 1013.3
20260904040054 80 0 1.0 4.0 0.00 0.00 0.00 92 1013.7
20260904034551 80 0 1.0 4.0 0.00 0.00 0.00 91 1014.1
20260904033057 80 226 1.0 3.0 0.00 0.00 0.00 91 1014.3
20260904031605 80 226 1.0 3.0 0.00 0.00 0.00 90 1014.4
20260904030055 80 0 0.0 3.0 0.00 0.00 0.00 89 1014.3
20260904024553 80 226 0.0 4.0 0.00 0.00 0.00 89 1014.3
20260904023050 81 226 0.0 2.0 0.00 0.00 0.00 89 1014.1
20260904021555 81 0 0.0 2.0 0.00 0.00 0.00 88 1014.1
20260904020051 81 0 0.0 2.0 0.00 0.00 0.00 88 1014.3
20260904014551 81 226 0.0 2.0 0.00 0.00 0.00 87 1014.5
20260904013104 82 0 0.0 2.0 0.00 0.00 0.00 86 1014.7
20260904011554 82 226 0.0 2.0 0.00 0.00 0.00 86 1015.0
20260904010100 82 0 0.0 2.0 0.00 0.00 0.00 85 1014.8
20260904004559 83 0 1.0 4.0 0.00 0.00 0.00 85 1014.9
20260904003053 83 226 0.0 4.0 0.00 0.00 0.00 84 1014.6
20260904001549 83 226 1.0 4.0 0.00 0.00 0.00 83 1014.5
20260904000051 84 226 1.0 4.0 0.00 0.00 0.00 82 1014.1
20260903234555 84 226 1.0 5.0 0.00 0.00 0.00 80 1013.8
20260903233054 85 257 2.0 6.0 0.00 0.00 0.00 77 1014.0
20260903231555 86 257 1.0 4.0 0.00 0.00 0.00 73 1013.9
20260903224554 87 252 1.0 4.0 0.00 0.00 0.00 70 1013.9
20260903223102 87 239 3.0 10.0 0.00 0.00 0.00 69 1013.8
20260903221555 88 248 6.0 10.0 0.00 0.00 0.00 68 1013.8
20260903220055 88 259 4.0 12.0 0.00 0.00 0.00 68 1013.9
20260903214602 88 261 7.0 13.0 0.00 0.00 0.00 68 1013.7
20260903213100 89 306 8.0 15.0 0.00 0.00 0.00 66 1013.9
20260903211556 89 264 8.0 14.0 0.00 0.00 0.00 69 1013.9
20260903210055 89 246 7.0 15.0 0.00 0.00 0.00 67 1013.8
20260903204556 89 257 7.0 17.0 0.00 0.00 0.00 68 1014.1
20260903203059 89 257 8.0 15.0 0.00 0.00 0.00 67 1014.1
20260903201558 89 275 7.0 14.0 0.00 0.00 0.00 70 1014.1
20260903200054 89 244 7.0 14.0 0.00 0.00 0.00 71 1014.4
20260903194553 88 258 7.0 13.0 0.00 0.00 0.00 73 1014.4
20260903193050 88 260 7.0 12.0 0.00 0.00 0.00 73 1014.7
20260903191554 88 267 9.0 15.0 0.00 0.00 0.00 73 1014.9
20260903190053 87 277 8.0 13.0 0.00 0.00 0.00 75 1015.0
20260903184552 87 258 8.0 13.0 0.00 0.00 0.00 75 1015.0
20260903183055 86 249 5.0 10.0 0.00 0.00 0.00 78 1015.2
20260903181553 86 267 3.0 11.0 0.00 0.00 0.00 78 1015.8
20260903180116 85 267 5.0 11.0 0.00 0.00 0.00 77 1015.7
20260903174554 86 266 6.0 12.0 0.00 0.00 0.00 77 1015.9
20260903173052 86 252 4.0 16.0 0.00 0.00 0.00 76 1016.0
20260903171554 86 266 8.0 14.0 0.00 0.00 0.00 77 1016.2
20260903170059 85 268 6.0 14.0 0.00 0.00 0.00 77 1016.2
20260903164601 85 254 7.0 17.0 0.00 0.00 0.00 76 1016.4
20260903163053 86 242 5.0 11.0 0.00 0.00 0.00 76 1016.6
20260903161551 85 261 8.0 16.0 0.00 0.00 0.00 76 1016.5
20260903160107 85 271 8.0 16.0 0.00 0.00 0.00 75 1016.4
20260903154554 85 208 8.0 18.0 0.00 0.00 0.00 77 1016.4
20260903153054 84 202 9.0 18.0 0.00 0.00 0.00 78 1016.4
20260903151556 84 209 5.0 14.0 0.00 0.00 0.00 81 1016.4
20260903150058 82 221 6.0 12.0 0.00 0.00 0.00 83 1016.5
20260903144558 81 198 5.0 11.0 0.00 0.00 0.00 86 1016.5